[[{"header":{"parameterUnit":"m.s-1","parameterCategory":2,"la1":30.2991,"la2":30.254,"lo1":-89.0895,"lo2":-89.0444,"dy":0.0017,"dx":0.0017,"nx":28,"ny":28,"refTime":"2025-02-12T09:00:00:Z","depth":"0","parameterNumber":2,"parameterNumberName":"U-component_of_CURRENTS"},"data":[0,0,0,0,0,0,0,0,0,0,0,0,0,0,0,0,0,0,0,0,0,0,0,0,0,0,0,0,0,0,0,0,0,0,0,0,0,0,0,0,0,0,0,0,0,0,0,0,0,0,0,0,0,0,0,0,0,0,0.205,0.2051,0,0.2089,0.2089,0.209,0.2089,0.2089,0.2088,0.2088,0.2088,0.2089,0.2089,0,0,0,0,0,0,0,0,0,0,0,0,0,0.1975,0.1976,0.205,0.2051,0.2051,0.2089,0.2089,0.209,0.2089,0.2089,0.2088,0.2088,0.2088,0.2089,0.2089,0,0,0,0,0,0,0,0,0,0,0,0,0,0.2008,0.1977,0.205,0.2057,0.2058,0.2089,0.2089,0.209,0.2089,0.2089,0.2088,0.2088,0.2088,0.2089,0.2089,0.2102,0,0,0.2091,0.2091,0,0,0,0,0,0,0,0,0.2006,0.2011,0.2056,0.2057,0.2058,0.2085,0.2063,0.2093,0.2089,0.2075,0.2088,0.2087,0.2086,0.2086,0.2092,0.2102,0.2102,0.2091,0.2091,0.2091,0.2091,0,0,0,0,0,0,0,0.2004,0.2009,0.2063,0.2056,0.2058,0.2059,0.2062,0.2069,0.208,0.2077,0.2077,0.2085,0.2086,0.2092,0.2092,0.2102,0.2091,0.2091,0.2091,0.2092,0.2147,0.2148,0,0,0,0,0,0,0.2004,0.2007,0.2062,0.2065,0.2033,0.206,0.2065,0.2076,0.2081,0.2083,0.2085,0.2085,0.2091,0.2092,0.2092,0.2128,0.2091,0.2092,0.2092,0.2146,0.2147,0.2148,0,0,0,0,0,0,0.2002,0.2009,0.2061,0.2038,0.2045,0.2062,0.2074,0.2077,0.2086,0.2089,0.2089,0.2093,0.2091,0.2092,0.2109,0.2127,0.2092,0.2092,0.2144,0.2146,0.2148,0.2186,0,0,0,0,0,0,0.2,0.2008,0.2015,0.2038,0.2046,0.2083,0.2075,0.2078,0.2092,0.2092,0.2095,0.2095,0.2091,0.2108,0.2109,0.2127,0.2093,0.2143,0.2145,0.2147,0.2184,0.2189,0.2194,0,0,0,0,0,0.1997,0.2008,0.2015,0.2022,0.2056,0.2084,0.2088,0.2097,0.2093,0.2102,0.2108,0.2095,0.2123,0.2109,0.211,0.2129,0.2142,0.2144,0.2147,0.2181,0.2188,0.2194,0,0,0,0,0,0,0.1975,0.201,0.2018,0.2038,0.2062,0.2084,0.2093,0.2101,0.2114,0.2112,0.2109,0.211,0.2132,0.2128,0.2113,0.2153,0.213,0.2133,0.2156,0.2163,0.2168,0.2168,0.2093,0,0,0,0,0,0.1976,0.1994,0.2026,0.2041,0.2055,0.2075,0.2087,0.2097,0.2112,0.2117,0.2122,0.2129,0.2145,0.215,0.2159,0.218,0.2206,0.2194,0.2199,0.2203,0.2205,0.2266,0.2277,0.2157,0.2157,0.2157,0,0,0.197,0.1993,0.2001,0.2038,0.2055,0.208,0.2081,0.2103,0.2123,0.2115,0.2138,0.2147,0.2155,0.2181,0.219,0.2178,0.2257,0.2207,0.221,0.2209,0.227,0.2281,0.2292,0.2159,0.2158,0.2158,0,0,0.1968,0.199,0.2005,0.2031,0.2065,0.2083,0.2091,0.2121,0.2133,0.2161,0.2164,0.2185,0.2202,0.2217,0.2226,0.2266,0.2283,0.2269,0.2294,0.2353,0.2364,0.2373,0.2446,0.2461,0.2271,0.2271,0.2271,0,0.1959,0.1986,0.2013,0.2038,0.2061,0.2085,0.2109,0.213,0.2161,0.2181,0.2171,0.2221,0.2221,0.2266,0.2277,0.2277,0.232,0.2268,0.2361,0.2371,0.238,0.2451,0.2468,0.2273,0.2273,0.2272,0.2272,0,0.1973,0.1997,0.2009,0.2051,0.2079,0.2103,0.2143,0.2167,0.2184,0.221,0.2257,0.2268,0.2301,0.2305,0.23,0.2365,0.238,0.2362,0.2345,0.2394,0.2467,0.2483,0.2276,0.2275,0.2275,0.2274,0,0,0.1946,0.2005,0.201,0.2034,0.2089,0.2114,0.2155,0.2205,0.2242,0.2269,0.2325,0.2344,0.236,0.2371,0.2378,0.2418,0.2518,0.2416,0.2419,0.2489,0.2673,0.2681,0.27,0.2522,0.2524,0.2526,0.2707,0,0.1947,0.1989,0.2024,0.2067,0.2095,0.214,0.2179,0.223,0.2274,0.2334,0.2365,0.2414,0.2386,0.2411,0.245,0.2507,0.256,0.2471,0.2614,0.2619,0.2619,0.2718,0.2681,0.2839,0.2723,0.2726,0.2728,0,0.195,0.1981,0.2019,0.2086,0.2103,0.2132,0.221,0.2251,0.234,0.238,0.2439,0.2475,0.2551,0.2511,0.2641,0.2592,0.2634,0.2667,0.2675,0.2676,0.2656,0.2766,0.2873,0.2845,0.2754,0.2751,0.275,0,0.1923,0.1981,0.2009,0.2032,0.2107,0.2134,0.2175,0.2259,0.2325,0.2417,0.2497,0.2565,0.2647,0.2693,0.2765,0.2718,0.2913,0.2859,0.2908,0.2909,0.2902,0.2898,0.2994,0.2947,0.2946,0.2946,0.2945,0,0.1916,0.1942,0.1995,0.2014,0.2061,0.2117,0.2186,0.224,0.2355,0.2452,0.2522,0.2627,0.27,0.2816,0.2828,0.2948,0.2976,0.2943,0.2965,0.2916,0.2912,0.2902,0.2853,0.2953,0.2951,0.295,0.2949,0,0.1894,0.1922,0.1963,0.2028,0.205,0.2085,0.2201,0.2261,0.2373,0.2511,0.2556,0.2732,0.2879,0.2955,0.307,0.3069,0.3079,0.3161,0.3108,0.3118,0.3098,0.3051,0.3001,0.2911,0.3251,0.3253,0.3254,0,0.1892,0.1906,0.1966,0.1992,0.2022,0.2084,0.2135,0.2248,0.2333,0.2568,0.2645,0.2849,0.2975,0.3182,0.3215,0.3289,0.3159,0.3287,0.3168,0.3127,0.3091,0.2903,0.2815,0.3191,0.3192,0.3192,0.3193,0,0.1891,0.1904,0.1937,0.1983,0.2028,0.2091,0.2175,0.2249,0.2398,0.2534,0.2717,0.284,0.3082,0.3171,0.3302,0.332,0.3156,0.3297,0.3275,0.3078,0.286,0.2774,0.305,0.3197,0.3196,0.3196,0.3196,0.3196,0.1888,0.1903,0.1933,0.198,0.2025,0.2076,0.2106,0.2215,0.2336,0.2507,0.2678,0.2837,0.3092,0.3277,0.3269,0.3311,0.3188,0.3261,0.3223,0.3047,0.29,0.319,0.3333,0.3334,0.3334,0.3334,0.3335,0,0.1879,0.1892,0.1934,0.1968,0.1992,0.2032,0.2118,0.2135,0.2222,0.2416,0.2554,0.284,0.3022,0.3179,0.3342,0.327,0.3062,0.3211,0.2955,0.288,0.3202,0.3141,0.3224,0.3224,0.3224,0.3224,0.3224,0.3224,0.187,0.1885,0.1903,0.1919,0.194,0.1941,0.1965,0.1995,0.21,0.2255,0.2413,0.2594,0.2986,0.3309,0.3349,0.3261,0.2991,0.2894,0.2816,0.3096,0.3096,0.3097,0.3031,0.3089,0.3089,0.2398,0.2394,0.239]},{"header":{"parameterUnit":"m.s-1","parameterCategory":2,"la1":30.2991,"la2":30.254,"lo1":-89.0895,"lo2":-89.0444,"dy":0.0017,"dx":0.0017,"nx":28,"ny":28,"refTime":"2025-02-12T09:00:00:Z","depth":"0","parameterNumber":3,"parameterNumberName":"V-component_of_CURRENTS"},"data":[0,0,0,0,0,0,0,0,0,0,0,0,0,0,0,0,0,0,0,0,0,0,0,0,0,0,0,0,0,0,0,0,0,0,0,0,0,0,0,0,0,0,0,0,0,0,0,0,0,0,0,0,0,0,0,0,0,0,0.0123,0.0122,0,0.0049,0.0048,0.0047,-0.0004,-0.0004,-0.0004,-0.0005,-0.0126,-0.0129,-0.0132,0,0,0,0,0,0,0,0,0,0,0,0,0,0.0177,0.0177,0.0123,0.0122,0.0121,0.0049,0.0048,0.0047,-0.0004,-0.0004,-0.0004,-0.0005,-0.0125,-0.0128,-0.0132,0,0,0,0,0,0,0,0,0,0,0,0,0,0.0133,0.0177,0.0123,0.0088,0.0084,0.0049,0.0048,0.0047,-0.0004,-0.0004,-0.0005,-0.0005,-0.0124,-0.0128,-0.0132,-0.015,0,0,-0.0146,-0.0148,0,0,0,0,0,0,0,0,0.0136,0.0131,0.0094,0.009,0.0086,0.0032,0.0023,-0.0021,-0.0003,0.0029,-0.0005,-0.0005,-0.0076,-0.0085,-0.0098,-0.0156,-0.0161,-0.0146,-0.0149,-0.0151,-0.0152,0,0,0,0,0,0,0,0.0139,0.0134,0.0093,0.0093,0.0088,0.0061,0.0055,0.0014,-0.0022,0.0026,0.0022,0.0016,-0.0079,-0.0094,-0.0101,-0.0163,-0.0146,-0.015,-0.0153,-0.0154,-0.0248,-0.0247,0,0,0,0,0,0,0.0152,0.0137,0.0095,0.0091,0.0111,0.0061,0.0053,0.0049,-0.0021,-0.0031,0.0016,0.0013,-0.0086,-0.0096,-0.0106,-0.0128,-0.0151,-0.0155,-0.0157,-0.0248,-0.0248,-0.0247,0,0,0,0,0,0,0.0154,0.0149,0.0098,0.0112,0.0104,0.0061,0.0056,0.0048,0.0033,-0.0027,-0.0039,0.001,-0.0087,-0.01,-0.0138,-0.0133,-0.0157,-0.0161,-0.0248,-0.0248,-0.0248,-0.0174,0,0,0,0,0,0,0.0156,0.015,0.0153,0.0114,0.0104,0.0085,0.0056,0.0047,0.003,0.0026,-0.0037,-0.0048,-0.0088,-0.0131,-0.0142,-0.0139,-0.0164,-0.0248,-0.0248,-0.0248,-0.0176,-0.0171,-0.0166,0,0,0,0,0,0.0158,0.0166,0.0153,0.0148,0.0108,0.0086,0.0079,0.0045,0.0031,0.0029,-0.0014,-0.0046,-0.0137,-0.0134,-0.0148,-0.0146,-0.0248,-0.0248,-0.0248,-0.0179,-0.0172,-0.0167,0,0,0,0,0,0,0.0192,0.016,0.0146,0.0143,0.012,0.0078,0.0073,0.0051,0.0016,0.0011,-0.0046,-0.006,-0.0093,-0.0129,-0.0124,-0.0172,-0.0198,-0.02,-0.0141,-0.0135,-0.013,-0.0114,-0.0168,0,0,0,0,0,0.0201,0.0198,0.0163,0.0163,0.0153,0.0115,0.0102,0.008,0.0045,0.0029,-0.0013,-0.006,-0.0101,-0.0124,-0.0166,-0.0192,-0.0218,-0.0199,-0.0194,-0.019,-0.0186,-0.0224,-0.0222,-0.0246,-0.0246,-0.0246,0,0,0.0214,0.0197,0.0195,0.017,0.0149,0.0143,0.0106,0.0092,0.0085,0.0021,-0.0,-0.0045,-0.0105,-0.0133,-0.0151,-0.0163,-0.0193,-0.0189,-0.0185,-0.0184,-0.0223,-0.0221,-0.0219,-0.0246,-0.0246,-0.0246,0,0,0.0243,0.0225,0.0232,0.0216,0.019,0.0167,0.0167,0.0129,0.0109,0.0084,0.0036,-0.0003,-0.0062,-0.0103,-0.0133,-0.0126,-0.0165,-0.0138,-0.0101,-0.0138,-0.0136,-0.0134,-0.0144,-0.0145,-0.0135,-0.0135,-0.0135,0,0.0261,0.0264,0.0232,0.0234,0.0228,0.0183,0.0192,0.0165,0.012,0.0108,0.0088,0.0003,-0.0048,-0.0088,-0.0087,-0.0114,-0.0132,-0.0117,-0.013,-0.0129,-0.0129,-0.014,-0.0142,-0.0132,-0.0132,-0.0133,-0.0133,0,0.0291,0.0294,0.0299,0.0288,0.0277,0.0277,0.0241,0.0226,0.0199,0.017,0.013,0.0062,0.0013,-0.0011,-0.005,-0.0075,-0.0085,-0.0117,-0.014,-0.0122,-0.0135,-0.0137,-0.0127,-0.0128,-0.0129,-0.013,0,0,0.0327,0.0322,0.0323,0.0334,0.0307,0.0306,0.0294,0.0273,0.0276,0.022,0.0218,0.0133,0.0097,0.0062,0.0007,-0.0029,-0.0043,-0.0067,-0.007,-0.0067,-0.0101,-0.011,-0.0114,-0.0077,-0.0077,-0.0078,-0.0102,0,0.0361,0.0388,0.0371,0.0398,0.041,0.0372,0.037,0.0344,0.0317,0.0304,0.0225,0.0199,0.0124,0.0109,0.0058,-0.0017,-0.005,-0.0032,-0.0128,-0.013,-0.0134,-0.0118,-0.0108,-0.013,-0.0105,-0.0106,-0.0106,0,0.0392,0.041,0.0443,0.0462,0.0464,0.047,0.0469,0.0462,0.0422,0.0403,0.0355,0.0299,0.0232,0.0173,0.0051,0.0068,-0.001,-0.007,-0.0073,-0.0112,-0.0145,-0.0151,-0.0136,-0.029,-0.0111,-0.011,-0.011,0,0.0436,0.0461,0.0494,0.0498,0.0505,0.0514,0.0515,0.049,0.0513,0.0468,0.0495,0.0383,0.0362,0.0232,0.0096,0.0076,-0.0024,-0.0069,-0.0149,-0.015,-0.0176,-0.0178,-0.0316,-0.0152,-0.0152,-0.0152,-0.0152,0,0.0477,0.0505,0.052,0.0538,0.0591,0.0569,0.0618,0.06,0.061,0.0666,0.0554,0.0582,0.0378,0.0295,0.0141,-0.0001,0.0006,-0.0135,-0.016,-0.0148,-0.0147,-0.0311,-0.0419,-0.0153,-0.0153,-0.0152,-0.0152,0,0.0517,0.0521,0.057,0.0597,0.0612,0.0648,0.0708,0.0753,0.0743,0.0818,0.0818,0.0743,0.0628,0.0428,0.0233,0.0087,-0.0164,-0.0126,-0.0084,-0.0105,-0.0332,-0.0435,-0.0593,-0.0678,-0.0216,-0.0217,-0.0217,0,0.0541,0.0568,0.0623,0.067,0.0688,0.0744,0.0797,0.0812,0.0885,0.0932,0.0994,0.0904,0.0867,0.0574,0.0273,0.0005,-0.0162,-0.0149,-0.0202,-0.0338,-0.0473,-0.0526,-0.0591,-0.0198,-0.0198,-0.0198,-0.0198,0,0.0601,0.0615,0.066,0.0752,0.0821,0.0909,0.0994,0.1079,0.1123,0.1189,0.1262,0.1231,0.0953,0.0675,0.0296,0.0099,-0.0268,-0.016,-0.0323,-0.0489,-0.0535,-0.0629,-0.0172,-0.02,-0.02,-0.0199,-0.0199,-0.0199,0.0651,0.07,0.0762,0.085,0.0939,0.1069,0.1163,0.1272,0.1396,0.152,0.1474,0.1479,0.1071,0.0545,0.0239,-0.0271,-0.0291,-0.0416,-0.0531,-0.057,-0.0663,-0.0194,-0.0242,-0.0242,-0.0243,-0.0243,-0.0243,0,0.0722,0.0774,0.0863,0.0976,0.1088,0.1119,0.1297,0.1404,0.1566,0.168,0.1727,0.1572,0.1048,0.0538,-0.0167,-0.055,-0.0699,-0.0766,-0.0856,-0.0907,-0.0503,-0.0513,-0.0595,-0.0595,-0.0595,-0.0595,-0.0594,-0.0594,0.0765,0.0857,0.0899,0.1081,0.117,0.1339,0.1449,0.1605,0.1732,0.1891,0.194,0.1941,0.1591,0.0221,-0.0661,-0.0885,-0.1164,-0.1235,-0.1377,-0.1121,-0.1097,-0.1074,-0.1107,-0.1312,-0.1313,-0.171,-0.1714,-0.1718]}],[{"header":{"parameterUnit":"m.s-1","parameterCategory":2,"la1":30.2991,"la2":30.254,"lo1":-89.0895,"lo2":-89.0444,"dy":0.0017,"dx":0.0017,"nx":28,"ny":28,"refTime":"2025-02-12T09:00:00:Z","depth":"2","parameterNumber":2,"parameterNumberName":"U-component_of_CURRENTS"},"data":[0,0,0,0,0,0,0,0,0,0,0,0,0,0,0,0,0,0,0,0,0,0,0,0,0,0,0,0,0,0,0,0,0,0,0,0,0,0,0,0,0,0,0,0,0,0,0,0,0,0,0,0,0,0,0,0,0,0,0.1817,0.1817,0,0.1863,0.1863,0.1863,0.1875,0.1874,0.1874,0.1874,0.1889,0.1889,0.189,0,0,0,0,0,0,0,0,0,0,0,0,0,0.1734,0.1735,0.1817,0.1817,0.1818,0.1863,0.1863,0.1864,0.1875,0.1874,0.1874,0.1874,0.1889,0.1889,0.189,0,0,0,0,0,0,0,0,0,0,0,0,0,0.1772,0.1735,0.1816,0.183,0.1832,0.1863,0.1863,0.1864,0.1875,0.1874,0.1874,0.1874,0.1888,0.1889,0.189,0.1898,0,0,0.1892,0.1892,0,0,0,0,0,0,0,0,0.177,0.1775,0.1828,0.183,0.1832,0.1864,0.1839,0.1874,0.1875,0.1856,0.1874,0.1874,0.1879,0.1881,0.1887,0.1899,0.19,0.1892,0.1893,0.1893,0.1893,0,0,0,0,0,0,0,0.1767,0.1773,0.1833,0.1828,0.1831,0.1833,0.1838,0.1846,0.1866,0.1858,0.1859,0.1868,0.188,0.1887,0.1888,0.19,0.1892,0.1893,0.1893,0.1894,0.1954,0.1955,0,0,0,0,0,0,0.1766,0.177,0.1831,0.1834,0.1802,0.1835,0.184,0.1852,0.1867,0.187,0.1868,0.1868,0.1885,0.1887,0.1888,0.193,0.1893,0.1894,0.1894,0.1953,0.1954,0.1955,0,0,0,0,0,0,0.1764,0.1771,0.183,0.1805,0.1812,0.1837,0.185,0.1854,0.1869,0.1875,0.1877,0.1881,0.1885,0.1887,0.1909,0.193,0.1894,0.1895,0.1951,0.1953,0.1955,0.1994,0,0,0,0,0,0,0.1762,0.177,0.178,0.1805,0.1814,0.1854,0.1851,0.1855,0.1875,0.1876,0.1887,0.1887,0.1885,0.1908,0.1909,0.193,0.1895,0.195,0.1952,0.1954,0.1991,0.1997,0.2002,0,0,0,0,0,0.1759,0.1771,0.178,0.1788,0.1826,0.1855,0.186,0.1875,0.1876,0.1887,0.1897,0.1887,0.1923,0.1909,0.1911,0.1932,0.1949,0.1952,0.1954,0.1989,0.1996,0.2002,0,0,0,0,0,0,0.1738,0.1775,0.1785,0.1808,0.1834,0.1858,0.187,0.1881,0.1899,0.19,0.1901,0.1903,0.1931,0.1927,0.1913,0.1957,0.1934,0.1938,0.1961,0.1967,0.1972,0.1972,0.1896,0,0,0,0,0,0.174,0.176,0.1793,0.1812,0.1826,0.185,0.1864,0.1877,0.1896,0.1904,0.1913,0.1925,0.1942,0.1951,0.1962,0.1985,0.2008,0.2,0.2006,0.201,0.2012,0.2068,0.2079,0.1964,0.1964,0.1964,0,0,0.1735,0.176,0.177,0.1809,0.1829,0.1854,0.1858,0.1885,0.1907,0.1902,0.1932,0.1943,0.1953,0.1981,0.1993,0.1981,0.2059,0.2013,0.2017,0.2017,0.2072,0.2083,0.2093,0.1966,0.1965,0.1965,0,0,0.1737,0.1761,0.1779,0.1805,0.1842,0.1861,0.1871,0.1904,0.1921,0.1952,0.1957,0.1982,0.2003,0.2019,0.2029,0.2069,0.2085,0.2074,0.2101,0.2155,0.2165,0.2174,0.2238,0.2252,0.2077,0.2077,0.2077,0,0.173,0.1759,0.1787,0.1814,0.1838,0.1865,0.189,0.1914,0.1949,0.1971,0.1965,0.202,0.2022,0.2068,0.208,0.2081,0.212,0.2075,0.2163,0.2172,0.2181,0.2243,0.2258,0.2079,0.2079,0.2079,0.2078,0,0.1746,0.1773,0.1786,0.183,0.186,0.1886,0.1926,0.1954,0.1976,0.2003,0.2054,0.2067,0.2103,0.2108,0.2104,0.2168,0.2181,0.2164,0.2147,0.2195,0.2257,0.2273,0.2082,0.2081,0.2081,0.208,0,0,0.1723,0.1785,0.179,0.1815,0.1872,0.1898,0.1941,0.1992,0.203,0.2063,0.2119,0.2143,0.2162,0.2173,0.2181,0.2219,0.2312,0.2219,0.2221,0.2282,0.2453,0.2449,0.2466,0.2317,0.232,0.2322,0.2481,0,0.1727,0.1771,0.1806,0.1852,0.188,0.1926,0.1967,0.2019,0.2064,0.2125,0.2158,0.2209,0.2186,0.2214,0.225,0.2302,0.2351,0.2272,0.2397,0.2401,0.2392,0.2482,0.2293,0.2418,0.2495,0.2498,0.25,0,0.1732,0.1764,0.1805,0.1871,0.1889,0.192,0.1999,0.2041,0.2129,0.2171,0.2231,0.2268,0.2342,0.2308,0.2426,0.2383,0.2422,0.2451,0.2457,0.2447,0.2425,0.2378,0.2442,0.2525,0.2523,0.2521,0.2519,0,0.1704,0.1765,0.1796,0.1819,0.1895,0.1925,0.1967,0.2052,0.2115,0.2209,0.2284,0.2353,0.243,0.2474,0.2541,0.2499,0.2674,0.2623,0.2657,0.2658,0.2517,0.2501,0.2705,0.2705,0.2704,0.2704,0.2703,0,0.1699,0.1726,0.1784,0.1804,0.1854,0.191,0.1981,0.2036,0.2147,0.2239,0.231,0.2406,0.2479,0.2585,0.2598,0.2699,0.273,0.269,0.2707,0.2528,0.2512,0.2604,0.2591,0.271,0.2708,0.2707,0.2706,0,0.1674,0.1706,0.1749,0.1818,0.1843,0.188,0.1996,0.2055,0.2162,0.2293,0.2338,0.2499,0.2632,0.2705,0.281,0.2805,0.2866,0.2884,0.2679,0.2668,0.2797,0.2784,0.2946,0.2947,0.2948,0.2949,0.295,0,0.167,0.1685,0.1753,0.1783,0.1816,0.1883,0.1937,0.2046,0.2125,0.2343,0.2412,0.2599,0.2705,0.2884,0.2903,0.2963,0.295,0.2817,0.2687,0.2827,0.2827,0.2811,0.2796,0.2525,0.2522,0.252,0.2518,0,0.1665,0.1683,0.172,0.1774,0.1825,0.1887,0.1974,0.2039,0.2182,0.2302,0.2464,0.2566,0.2769,0.2764,0.2872,0.2859,0.2786,0.2776,0.2999,0.2491,0.2442,0.2437,0.2435,0.2498,0.25,0.2502,0.2503,0.2503,0.1665,0.1679,0.1718,0.177,0.1824,0.1871,0.1897,0.1996,0.2099,0.2244,0.2399,0.2493,0.2594,0.2661,0.2619,0.2598,0.2766,0.2637,0.2638,0.2643,0.2564,0.2519,0.2577,0.2579,0.2581,0.2583,0.2584,0,0.1652,0.167,0.1717,0.1756,0.1784,0.1833,0.1909,0.1912,0.1975,0.2135,0.2244,0.2171,0.2235,0.231,0.2271,0.2313,0.2223,0.2206,0.2062,0.2089,0.2111,0.1995,0.1862,0.1859,0.1856,0.1853,0,0,0.1644,0.1662,0.1677,0.1699,0.1731,0.1734,0.1753,0.1758,0.1831,0.1865,0.1915,0.2136,0.2273,0.2023,0.2033,0.1935,0.197,0.1863,0.2461,0.2319,0.2336,0.2404,0.2265,0,0,0,0,0]},{"header":{"parameterUnit":"m.s-1","parameterCategory":2,"la1":30.2991,"la2":30.254,"lo1":-89.0895,"lo2":-89.0444,"dy":0.0017,"dx":0.0017,"nx":28,"ny":28,"refTime":"2025-02-12T09:00:00:Z","depth":"2","parameterNumber":3,"parameterNumberName":"V-component_of_CURRENTS"},"data":[0,0,0,0,0,0,0,0,0,0,0,0,0,0,0,0,0,0,0,0,0,0,0,0,0,0,0,0,0,0,0,0,0,0,0,0,0,0,0,0,0,0,0,0,0,0,0,0,0,0,0,0,0,0,0,0,0,0,0.0008,0.0007,0,-0.0058,-0.0059,-0.006,-0.0104,-0.0104,-0.0105,-0.0105,-0.0215,-0.0218,-0.022,0,0,0,0,0,0,0,0,0,0,0,0,0,0.0054,0.0053,0.0008,0.0007,0.0007,-0.0058,-0.0059,-0.006,-0.0104,-0.0104,-0.0105,-0.0105,-0.0214,-0.0217,-0.0221,0,0,0,0,0,0,0,0,0,0,0,0,0,0.0015,0.0053,0.0008,-0.0023,-0.0026,-0.0058,-0.0059,-0.006,-0.0104,-0.0104,-0.0105,-0.0105,-0.0213,-0.0217,-0.0221,-0.0239,0,0,-0.0233,-0.0235,0,0,0,0,0,0,0,0,0.0017,0.0013,-0.0017,-0.0021,-0.0024,-0.0072,-0.0083,-0.0122,-0.0104,-0.0075,-0.0105,-0.0105,-0.0171,-0.0178,-0.019,-0.0244,-0.0249,-0.0234,-0.0236,-0.0238,-0.0239,0,0,0,0,0,0,0,0.002,0.0016,-0.0019,-0.0018,-0.0022,-0.0048,-0.0053,-0.0091,-0.0122,-0.0078,-0.0081,-0.0087,-0.0173,-0.0186,-0.0193,-0.025,-0.0234,-0.0237,-0.024,-0.0241,-0.0329,-0.0329,0,0,0,0,0,0,0.0032,0.0018,-0.0017,-0.0021,-0.0003,-0.0048,-0.0054,-0.0057,-0.012,-0.013,-0.0087,-0.0089,-0.0179,-0.0189,-0.0197,-0.0217,-0.0238,-0.0242,-0.0244,-0.0329,-0.0329,-0.0329,0,0,0,0,0,0,0.0034,0.003,-0.0014,-0.0002,-0.001,-0.0048,-0.0051,-0.0058,-0.0071,-0.0126,-0.0137,-0.0091,-0.018,-0.0192,-0.0227,-0.0221,-0.0244,-0.0247,-0.0329,-0.0329,-0.0329,-0.0259,0,0,0,0,0,0,0.0035,0.0031,0.0034,-0.0001,-0.001,-0.0025,-0.0051,-0.0059,-0.0073,-0.0077,-0.0134,-0.0144,-0.0181,-0.022,-0.0231,-0.0227,-0.025,-0.0329,-0.0329,-0.0329,-0.0261,-0.0256,-0.0252,0,0,0,0,0,0.0037,0.0046,0.0035,0.003,-0.0005,-0.0025,-0.0031,-0.0061,-0.0073,-0.0074,-0.0113,-0.0143,-0.0226,-0.0223,-0.0236,-0.0233,-0.0329,-0.0329,-0.0329,-0.0263,-0.0257,-0.0252,0,0,0,0,0,0,0.0069,0.0041,0.0028,0.0028,0.0007,-0.0032,-0.0034,-0.0055,-0.0086,-0.009,-0.0143,-0.0156,-0.0185,-0.0219,-0.0214,-0.0259,-0.0282,-0.0285,-0.0228,-0.0223,-0.0219,-0.0201,-0.0254,0,0,0,0,0,0.0078,0.0077,0.0045,0.0046,0.0038,0.0003,-0.0009,-0.0028,-0.006,-0.0074,-0.0112,-0.0155,-0.0194,-0.0215,-0.0253,-0.0277,-0.0304,-0.0284,-0.0279,-0.0275,-0.0269,-0.0308,-0.0306,-0.0328,-0.0328,-0.0328,0,0,0.0091,0.0076,0.0075,0.0053,0.0034,0.0029,-0.0005,-0.0016,-0.0021,-0.0081,-0.0099,-0.0141,-0.0197,-0.0223,-0.0239,-0.025,-0.0281,-0.0275,-0.0271,-0.0267,-0.0308,-0.0305,-0.0303,-0.0328,-0.0328,-0.0328,0,0,0.0119,0.0103,0.0111,0.0097,0.0075,0.0053,0.0054,0.0019,0.0002,-0.0021,-0.0066,-0.0101,-0.0156,-0.0194,-0.0222,-0.0216,-0.0255,-0.0228,-0.0191,-0.0228,-0.0227,-0.0225,-0.0243,-0.0244,-0.0225,-0.0225,-0.0225,0,0.0136,0.0141,0.0111,0.0115,0.0111,0.0069,0.0078,0.0054,0.0014,0.0002,-0.0016,-0.0095,-0.0143,-0.0179,-0.0178,-0.0204,-0.0225,-0.0205,-0.0221,-0.0221,-0.0221,-0.0239,-0.0241,-0.0222,-0.0222,-0.0222,-0.0223,0,0.0166,0.0171,0.0176,0.0168,0.0159,0.0161,0.0127,0.0114,0.0089,0.0062,0.0025,-0.0038,-0.0084,-0.0106,-0.0142,-0.0166,-0.0179,-0.0209,-0.023,-0.0214,-0.0234,-0.0238,-0.0217,-0.0218,-0.0219,-0.022,0,0,0.02,0.0199,0.02,0.0212,0.0189,0.0188,0.0179,0.016,0.0163,0.0111,0.0108,0.0031,-0.0002,-0.0036,-0.0087,-0.0123,-0.0141,-0.0159,-0.0163,-0.0167,-0.0206,-0.022,-0.0225,-0.0172,-0.0173,-0.0173,-0.0215,0,0.0233,0.0262,0.0247,0.0276,0.0288,0.0254,0.0253,0.0229,0.0203,0.0189,0.0115,0.009,0.0023,0.0009,-0.004,-0.0115,-0.0149,-0.0126,-0.023,-0.0232,-0.024,-0.023,-0.0212,-0.0248,-0.0218,-0.0219,-0.0219,0,0.0264,0.0282,0.0317,0.0337,0.034,0.0347,0.0347,0.0341,0.0301,0.0281,0.0236,0.0183,0.012,0.0066,-0.0055,-0.0036,-0.0113,-0.0174,-0.0177,-0.0218,-0.0253,-0.0265,-0.0256,-0.0225,-0.0225,-0.0224,-0.0224,0,0.0304,0.0332,0.0366,0.037,0.038,0.0391,0.0392,0.0368,0.0386,0.0342,0.0361,0.0258,0.0233,0.0111,-0.0021,-0.0036,-0.0145,-0.0185,-0.0269,-0.027,-0.029,-0.0292,-0.0267,-0.0267,-0.0267,-0.0266,-0.0266,0,0.0342,0.037,0.039,0.0408,0.0459,0.0441,0.0486,0.0469,0.0473,0.0517,0.0416,0.0431,0.0245,0.016,0.0016,-0.0129,-0.0122,-0.0257,-0.0284,-0.0264,-0.0263,-0.0277,-0.0278,-0.0268,-0.0268,-0.0267,-0.0267,0,0.0375,0.0384,0.0432,0.0462,0.0478,0.0511,0.0567,0.0605,0.0592,0.065,0.0649,0.0568,0.0451,0.0267,0.0079,-0.0058,-0.0212,-0.0267,-0.022,-0.0242,-0.032,-0.0317,-0.0364,-0.0365,-0.0365,-0.0366,-0.0366,0,0.0394,0.0421,0.048,0.0525,0.0544,0.0598,0.0646,0.0658,0.0719,0.0745,0.0791,0.0697,0.0645,0.0358,0.0088,-0.0162,-0.0199,-0.0301,-0.0339,-0.0309,-0.0331,-0.0327,-0.0322,-0.0331,-0.0332,-0.0332,-0.0332,0,0.044,0.0458,0.0503,0.0594,0.0659,0.0741,0.0817,0.0887,0.0921,0.0967,0.1008,0.0965,0.0697,0.0432,0.0085,-0.009,-0.0267,-0.0312,-0.0295,-0.0309,-0.0282,-0.0303,-0.0299,-0.0333,-0.0333,-0.0333,-0.0333,-0.0333,0.0479,0.0523,0.0588,0.0676,0.0763,0.0879,0.0963,0.105,0.1147,0.1234,0.1179,0.1132,0.0814,0.0374,0.0055,-0.0271,-0.0264,-0.0376,-0.0374,-0.0372,-0.0361,-0.0337,-0.0395,-0.0395,-0.0395,-0.0395,-0.0396,0,0.053,0.0585,0.0671,0.0782,0.0891,0.0929,0.1082,0.1168,0.1293,0.136,0.1379,0.1104,0.079,0.0442,-0.0043,-0.0343,-0.0372,-0.043,-0.0402,-0.0398,-0.0396,-0.0385,-0.0426,-0.0427,-0.0427,-0.0428,0,0,0.0563,0.065,0.0692,0.0871,0.0965,0.1127,0.1227,0.1339,0.1423,0.1482,0.1466,0.1374,0.0929,0.0579,0.015,-0.0127,-0.0185,-0.0182,-0.0128,-0.0041,-0.0035,-0.034,-0.0317,0,0,0,0,0]}],[{"header":{"parameterUnit":"m.s-1","parameterCategory":2,"la1":30.2991,"la2":30.254,"lo1":-89.0895,"lo2":-89.0444,"dy":0.0017,"dx":0.0017,"nx":28,"ny":28,"refTime":"2025-02-12T09:00:00:Z","depth":"4","parameterNumber":2,"parameterNumberName":"U-component_of_CURRENTS"},"data":[0,0,0,0,0,0,0,0,0,0,0,0,0,0,0,0,0,0,0,0,0,0,0,0,0,0,0,0,0,0,0,0,0,0,0,0,0,0,0,0,0,0,0,0,0,0,0,0,0,0,0,0,0,0,0,0,0,0,0.1186,0.1186,0,0.1258,0.1259,0.1259,0.1313,0.1314,0.1314,0.1315,0.1384,0.1385,0.1386,0,0,0,0,0,0,0,0,0,0,0,0,0,0.1085,0.1086,0.1186,0.1187,0.1188,0.1258,0.1259,0.126,0.1313,0.1314,0.1315,0.1315,0.1383,0.1385,0.1386,0,0,0,0,0,0,0,0,0,0,0,0,0,0.1139,0.1087,0.1185,0.1224,0.1228,0.1258,0.1259,0.126,0.1313,0.1314,0.1315,0.1315,0.1383,0.1385,0.1386,0.1381,0,0,0.1392,0.1393,0,0,0,0,0,0,0,0,0.1136,0.1142,0.1217,0.1221,0.1226,0.1278,0.1249,0.1301,0.1313,0.1279,0.1315,0.1316,0.1348,0.1353,0.1363,0.1384,0.1387,0.1393,0.1394,0.1395,0.1395,0,0,0,0,0,0,0,0.1132,0.1139,0.1213,0.1218,0.1223,0.1234,0.1243,0.1258,0.1307,0.1282,0.1287,0.1296,0.1351,0.1361,0.1365,0.1388,0.1392,0.1394,0.1395,0.1396,0.1484,0.1486,0,0,0,0,0,0,0.1125,0.1136,0.1211,0.1215,0.1183,0.1235,0.1245,0.126,0.1307,0.1316,0.1295,0.1299,0.1357,0.1363,0.1368,0.1437,0.1395,0.1396,0.1397,0.1483,0.1485,0.1486,0,0,0,0,0,0,0.1123,0.1131,0.1208,0.1178,0.1189,0.1236,0.1252,0.1261,0.1298,0.1317,0.1326,0.1328,0.1358,0.1365,0.1408,0.1437,0.1397,0.1399,0.1482,0.1484,0.1485,0.1529,0,0,0,0,0,0,0.1119,0.113,0.1149,0.1178,0.119,0.1242,0.1252,0.1262,0.1302,0.1307,0.1347,0.1353,0.1359,0.1405,0.141,0.1439,0.14,0.148,0.1483,0.1485,0.1526,0.1532,0.1537,0,0,0,0,0,0.1116,0.1134,0.1149,0.1159,0.1211,0.1243,0.1251,0.1286,0.1303,0.1323,0.1353,0.1353,0.1423,0.1408,0.1413,0.1444,0.1479,0.1482,0.1485,0.1524,0.1531,0.1537,0,0,0,0,0,0,0.1101,0.1143,0.116,0.1191,0.1223,0.1253,0.1278,0.1299,0.1339,0.1353,0.1368,0.1376,0.1424,0.1427,0.141,0.1475,0.1451,0.1455,0.1479,0.1486,0.1491,0.1488,0.1402,0,0,0,0,0,0.1105,0.1134,0.1169,0.1197,0.1215,0.1251,0.1273,0.1298,0.133,0.135,0.1378,0.1408,0.1434,0.1455,0.1475,0.1511,0.1523,0.1534,0.154,0.1544,0.1546,0.1588,0.1598,0.1495,0.1495,0.1495,0,0,0.1106,0.1135,0.1151,0.1197,0.1225,0.1255,0.1267,0.1309,0.1341,0.135,0.1408,0.1428,0.1447,0.149,0.1511,0.1501,0.1583,0.1548,0.1552,0.1551,0.1592,0.1602,0.1611,0.1496,0.1496,0.1496,0,0,0.1114,0.1151,0.1174,0.1204,0.1253,0.1275,0.1292,0.1338,0.1369,0.1418,0.1435,0.1474,0.1517,0.1537,0.155,0.1597,0.1609,0.1609,0.1641,0.1682,0.1691,0.1698,0.1739,0.175,0.1615,0.1615,0.1615,0,0.1115,0.1152,0.1186,0.1217,0.1247,0.1286,0.1317,0.1351,0.1407,0.1437,0.1445,0.1521,0.1537,0.1587,0.1606,0.161,0.1638,0.1614,0.1689,0.1697,0.1704,0.1744,0.1756,0.1618,0.1617,0.1617,0.1617,0,0.1136,0.1174,0.1193,0.1246,0.128,0.1316,0.1363,0.1406,0.1447,0.1481,0.1549,0.1575,0.1621,0.1633,0.1636,0.1698,0.1703,0.1689,0.1672,0.1718,0.1756,0.1768,0.1621,0.162,0.162,0.1619,0,0,0.1111,0.1191,0.1199,0.1232,0.1302,0.1329,0.1388,0.1449,0.1494,0.155,0.1611,0.1656,0.168,0.1697,0.1711,0.1745,0.1821,0.1746,0.1747,0.1785,0.1926,0.1827,0.183,0.1829,0.1831,0.1832,0.1937,0,0.1119,0.1175,0.1217,0.1276,0.131,0.1369,0.1418,0.1481,0.1537,0.1605,0.1649,0.1709,0.1703,0.1737,0.1772,0.1814,0.1852,0.1795,0.1876,0.1878,0.1784,0.184,0.1838,0.1945,0.1948,0.195,0.1951,0,0.112,0.1162,0.1218,0.1299,0.132,0.1362,0.1453,0.1504,0.1599,0.1647,0.1717,0.1759,0.1834,0.1812,0.1911,0.1882,0.1909,0.1929,0.1933,0.183,0.18,0.1887,0.1971,0.197,0.1968,0.1967,0.1966,0,0.1079,0.1162,0.1208,0.1237,0.133,0.1373,0.1427,0.152,0.158,0.1684,0.1748,0.1826,0.1896,0.1937,0.1995,0.1967,0.2095,0.2058,0.1993,0.1987,0.2024,0.2014,0.2117,0.2117,0.2117,0.2116,0.2116,0,0.1062,0.1101,0.1196,0.1221,0.128,0.1358,0.1432,0.1496,0.1609,0.1683,0.1772,0.1843,0.1935,0.2019,0.2034,0.206,0.2135,0.2008,0.2008,0.2042,0.2033,0.2033,0.2022,0.212,0.2119,0.2119,0.2118,0,0.1005,0.1071,0.1124,0.1226,0.1261,0.1303,0.1432,0.1485,0.1604,0.1708,0.1753,0.1899,0.2002,0.208,0.2167,0.2116,0.214,0.2127,0.2184,0.2183,0.1993,0.1983,0.2054,0.2052,0.205,0.2048,0.2046,0,0.0979,0.1001,0.1107,0.1141,0.119,0.1272,0.1327,0.146,0.1521,0.1723,0.1763,0.1927,0.2006,0.2062,0.2135,0.2173,0.2143,0.214,0.203,0.1994,0.1988,0.1981,0.1974,0.2043,0.2042,0.2042,0.2041,0,0.0912,0.0955,0.1,0.107,0.1133,0.1202,0.1295,0.1337,0.1496,0.163,0.174,0.1816,0.1939,0.2002,0.2063,0.2073,0.2127,0.2116,0.2119,0.2015,0.1981,0.1975,0.1971,0.2033,0.2034,0.2035,0.2036,0,0.0852,0.0867,0.0926,0.0985,0.1061,0.1108,0.1172,0.1262,0.1349,0.1571,0.1606,0.1779,0.1921,0.1954,0.2002,0.2019,0.1973,0.1889,0.1903,0.1912,0.1815,0.1748,0.1739,0,0,0,0,0,0.0784,0.0798,0.0838,0.0902,0.0977,0.1021,0.1139,0.1211,0.1373,0.1412,0.1508,0.1611,0.1716,0.1803,0.1791,0.1929,0.1969,0.1905,0.1875,0.1991,0.2,0.1899,0,0,0,0,0,0,0.0736,0.0767,0.0799,0.0817,0.085,0.0921,0.0991,0.1102,0.113,0.1305,0.1369,0.1509,0.1628,0.1707,0.1759,0.1785,0.1732,0.2014,0.201,0.1986,0.1994,0.2001,0.19,0,0,0,0,0]},{"header":{"parameterUnit":"m.s-1","parameterCategory":2,"la1":30.2991,"la2":30.254,"lo1":-89.0895,"lo2":-89.0444,"dy":0.0017,"dx":0.0017,"nx":28,"ny":28,"refTime":"2025-02-12T09:00:00:Z","depth":"4","parameterNumber":3,"parameterNumberName":"V-component_of_CURRENTS"},"data":[0,0,0,0,0,0,0,0,0,0,0,0,0,0,0,0,0,0,0,0,0,0,0,0,0,0,0,0,0,0,0,0,0,0,0,0,0,0,0,0,0,0,0,0,0,0,0,0,0,0,0,0,0,0,0,0,0,0,-0.0031,-0.0032,0,-0.0077,-0.0077,-0.0078,-0.0112,-0.0112,-0.0112,-0.0113,-0.0197,-0.0199,-0.0201,0,0,0,0,0,0,0,0,0,0,0,0,0,-0.0005,-0.0005,-0.0031,-0.0032,-0.0032,-0.0076,-0.0077,-0.0078,-0.0112,-0.0112,-0.0113,-0.0113,-0.0197,-0.0199,-0.0202,0,0,0,0,0,0,0,0,0,0,0,0,0,-0.003,-0.0005,-0.0031,-0.0054,-0.0057,-0.0076,-0.0077,-0.0078,-0.0112,-0.0112,-0.0113,-0.0113,-0.0196,-0.0199,-0.0202,-0.0213,0,0,-0.0211,-0.0212,0,0,0,0,0,0,0,0,-0.0029,-0.0031,-0.005,-0.0053,-0.0056,-0.0089,-0.0099,-0.0125,-0.0112,-0.0092,-0.0113,-0.0113,-0.0164,-0.017,-0.0178,-0.0217,-0.022,-0.0211,-0.0213,-0.0215,-0.0215,0,0,0,0,0,0,0,-0.0027,-0.003,-0.005,-0.0051,-0.0054,-0.0073,-0.0077,-0.0104,-0.0126,-0.0093,-0.0096,-0.01,-0.0166,-0.0175,-0.018,-0.0222,-0.0211,-0.0214,-0.0216,-0.0217,-0.0288,-0.0288,0,0,0,0,0,0,-0.0018,-0.0028,-0.0048,-0.0051,-0.0042,-0.0073,-0.0077,-0.0078,-0.0125,-0.0132,-0.0099,-0.0101,-0.0169,-0.0176,-0.0183,-0.0201,-0.0215,-0.0217,-0.0219,-0.0288,-0.0288,-0.0288,0,0,0,0,0,0,-0.0017,-0.0019,-0.0047,-0.004,-0.0045,-0.0072,-0.0074,-0.0079,-0.0089,-0.0129,-0.0137,-0.0105,-0.017,-0.0179,-0.0207,-0.0204,-0.0219,-0.0221,-0.0287,-0.0288,-0.0288,-0.0235,0,0,0,0,0,0,-0.0016,-0.0019,-0.0017,-0.004,-0.0045,-0.0054,-0.0073,-0.0079,-0.0091,-0.0094,-0.0136,-0.0145,-0.0171,-0.0202,-0.021,-0.0209,-0.0224,-0.0287,-0.0288,-0.0288,-0.0237,-0.0233,-0.023,0,0,0,0,0,-0.0015,-0.0009,-0.0016,-0.0019,-0.0041,-0.0054,-0.0058,-0.008,-0.009,-0.0092,-0.0122,-0.0143,-0.0209,-0.0205,-0.0214,-0.0213,-0.0287,-0.0288,-0.0288,-0.0238,-0.0234,-0.023,0,0,0,0,0,0,0.0005,-0.0012,-0.0021,-0.002,-0.0034,-0.0059,-0.0062,-0.0077,-0.0101,-0.0105,-0.0144,-0.0154,-0.0179,-0.0204,-0.0199,-0.0235,-0.0252,-0.0254,-0.0211,-0.0208,-0.0204,-0.0187,-0.0226,0,0,0,0,0,0.0011,0.0011,-0.0009,-0.0007,-0.0013,-0.0037,-0.0045,-0.0059,-0.0083,-0.0094,-0.0123,-0.0156,-0.0186,-0.0202,-0.0232,-0.025,-0.0275,-0.0257,-0.0254,-0.0251,-0.0244,-0.0279,-0.0278,-0.0288,-0.0288,-0.0288,0,0,0.0019,0.001,0.001,-0.0003,-0.0016,-0.0017,-0.0043,-0.0051,-0.0054,-0.01,-0.0114,-0.0147,-0.0189,-0.021,-0.0223,-0.0231,-0.0261,-0.0251,-0.0248,-0.0242,-0.0279,-0.0278,-0.0277,-0.0288,-0.0288,-0.0288,0,0,0.004,0.0029,0.0036,0.0027,0.0012,-0.0001,-0.0002,-0.0026,-0.0039,-0.0057,-0.0091,-0.012,-0.0163,-0.019,-0.0211,-0.0209,-0.0244,-0.0221,-0.019,-0.0225,-0.0224,-0.0223,-0.025,-0.0252,-0.0218,-0.0218,-0.0218,0,0.005,0.0057,0.0036,0.0041,0.004,0.0009,0.0019,0.0001,-0.0029,-0.0038,-0.0054,-0.0116,-0.0152,-0.0179,-0.0179,-0.0201,-0.0224,-0.0199,-0.0219,-0.022,-0.022,-0.0248,-0.0251,-0.0216,-0.0216,-0.0216,-0.0217,0,0.0073,0.008,0.0084,0.0082,0.0077,0.008,0.0057,0.0048,0.0028,0.0008,-0.0023,-0.0072,-0.0107,-0.0126,-0.0152,-0.0173,-0.019,-0.0211,-0.0225,-0.0216,-0.0245,-0.025,-0.0212,-0.0213,-0.0214,-0.0214,0,0,0.0092,0.01,0.0101,0.0114,0.0101,0.0102,0.0098,0.0086,0.0087,0.0047,0.0041,-0.0015,-0.0043,-0.0068,-0.0109,-0.0139,-0.0164,-0.0171,-0.0174,-0.0189,-0.0236,-0.0233,-0.0238,-0.019,-0.019,-0.019,-0.0254,0,0.0117,0.0143,0.0138,0.0164,0.0176,0.0156,0.0157,0.0141,0.0119,0.0103,0.0048,0.0025,-0.0021,-0.0036,-0.0075,-0.0143,-0.0174,-0.0145,-0.0249,-0.0252,-0.0245,-0.0243,-0.0192,-0.0257,-0.0258,-0.0259,-0.0259,0,0.0138,0.0156,0.0188,0.0212,0.0215,0.0225,0.0227,0.0224,0.0191,0.0173,0.0136,0.0093,0.0041,0.0003,-0.0105,-0.0085,-0.0152,-0.0205,-0.021,-0.0227,-0.0258,-0.0271,-0.0268,-0.0267,-0.0267,-0.0266,-0.0265,0,0.0159,0.019,0.0222,0.0228,0.0245,0.0257,0.0263,0.0245,0.0251,0.0217,0.0219,0.0143,0.0111,0.0016,-0.0097,-0.0101,-0.0214,-0.0237,-0.0298,-0.0299,-0.0305,-0.0305,-0.0308,-0.0308,-0.0308,-0.0308,-0.0307,0,0.0183,0.0208,0.0237,0.0253,0.0292,0.0291,0.0322,0.0311,0.0309,0.0322,0.0257,0.0247,0.0114,0.0033,-0.0077,-0.0198,-0.0203,-0.0289,-0.0314,-0.0282,-0.0278,-0.0308,-0.0307,-0.031,-0.0309,-0.0309,-0.0309,0,0.019,0.0212,0.025,0.0286,0.0302,0.0325,0.0368,0.0387,0.0381,0.0397,0.0393,0.0324,0.022,0.0085,-0.0071,-0.0162,-0.0285,-0.0327,-0.0272,-0.0295,-0.0352,-0.0347,-0.0397,-0.0398,-0.0398,-0.0398,-0.0399,0,0.0193,0.0213,0.027,0.03,0.0318,0.0361,0.0392,0.0413,0.0437,0.0442,0.0449,0.0373,0.0307,0.0104,-0.0055,-0.0258,-0.0291,-0.0354,-0.0361,-0.034,-0.0361,-0.0356,-0.0351,-0.0399,-0.0399,-0.0399,-0.0399,0,0.0191,0.0212,0.0244,0.0309,0.0356,0.0414,0.0462,0.0491,0.0516,0.052,0.051,0.041,0.0294,0.012,-0.0036,-0.0187,-0.0314,-0.0359,-0.036,-0.0366,-0.0343,-0.0362,-0.0357,-0.0401,-0.0401,-0.04,-0.04,0,0.0181,0.0205,0.0253,0.0314,0.0378,0.0447,0.0476,0.0518,0.055,0.0563,0.0555,0.0438,0.0369,0.0156,0.0007,-0.0135,-0.0178,-0.0229,-0.0237,-0.0238,-0.018,-0.0127,-0.0134,0,0,0,0,0,0.0169,0.0206,0.0257,0.0335,0.0403,0.0449,0.0514,0.054,0.0574,0.0582,0.0577,0.0474,0.0275,0.0184,0.0044,-0.0028,-0.0226,-0.0201,-0.0294,-0.0408,-0.0406,-0.0366,0,0,0,0,0,0,0.0161,0.0206,0.025,0.0342,0.0403,0.0486,0.0533,0.0559,0.0564,0.0578,0.0478,0.044,0.0242,0.0367,0.0046,0.0,-0.008,-0.0292,-0.0296,-0.0409,-0.0407,-0.0406,-0.0364,0,0,0,0,0]}]]